This demonstration page uses our WeatherBlox Daily Observations layout. Learn more.

Hourly Observations for December 25, 2017

Temp ( °F °C ) Dew Point ( °F °C ) Humidity (%) Winds ( mph kmh ) Pressure ( in mb ) Visibility ( mi km ) Precip ( " mm )
12:15 am 00:15 Clear 9 -13 1 -17.5 69 69 NW 3 6 30.53 1034 10 16.09344 0 0
12:35 am 00:35 Clear 8 -13.6 1 -17.5 73 73 WNW 5 7 30.53 1034 10 16.09344 0 0
12:55 am 00:55 Clear 8 -13.1 1 -17.3 71 71 NNW 8 13 30.53 1034 10 16.09344 0 0
1:15 am 01:15 Clear 7 -13.7 1 -17.5 73 73 W 5 7 30.53 1034 10 16.09344 0 0
1:35 am 01:35 Clear 8 -13.6 1 -17.2 75 75 WNW 6 9 30.53 1034 10 16.09344 0 0
1:55 am 01:55 Clear 8 -13.5 1 -17.1 75 75 NW 6 9 30.53 1034 10 16.09344 0 0
2:15 am 02:15 Clear 7 -13.7 1 -17 76 76 W 7 11 30.53 1034 10 16.09344 0 0
2:35 am 02:35 Clear 8 -13.1 2 -16.5 76 76 W 5 7 30.5 1033 10 16.09344 0 0
2:55 am 02:55 Clear 9 -12.6 3 -16.2 75 75 Calm 30.53 1034 10 16.09344 0 0
3:15 am 03:15 Clear 9 -12.7 3 -16 77 77 WNW 3 6 30.53 1034 10 16.09344 0 0
3:35 am 03:35 Clear 9 -12.6 3 -16 76 76 Calm 30.48 1032 10 16.09344 0 0
3:55 am 03:55 Clear 10 -12.4 4 -15.7 77 77 NNW 5 7 30.48 1032 10 16.09344 0 0
4:15 am 04:15 Clear 11 -11.8 4 -15.7 73 73 N 5 7 30.48 1032 10 16.09344 0 0
4:35 am 04:35 Clear 11 -11.7 4 -15.6 73 73 N 3 6 30.48 1032 10 16.09344 0 0
4:55 am 04:55 Clear 11 -11.9 5 -15.1 77 77 N 5 7 30.48 1032 10 16.09344 0 0
5:15 am 05:15 Mostly Cloudy 10 -12 4 -15.4 76 76 N 5 7 30.48 1032 10 16.09344 0 0
5:35 am 05:35 Cloudy 10 -12.3 4 -15.5 77 77 N 5 7 30.48 1032 10 16.09344 0 0
5:55 am 05:55 Mostly Cloudy 10 -12.5 4 -15.3 80 80 N 3 6 30.48 1032 10 16.09344 0 0
6:15 am 06:15 Cloudy 9 -12.6 4 -15.5 79 79 Calm 30.48 1032 10 16.09344 0 0
6:35 am 06:35 Partly Cloudy 9 -13 3 -16 78 78 Calm 30.5 1033 10 16.09344 0 0
6:55 am 06:55 Clear 7 -13.8 3 -16.3 82 82 Calm 30.5 1033 10 16.09344 0 0
7:15 am 07:15 Partly Cloudy 7 -14 2 -16.5 82 82 NNE 6 9 30.53 1034 10 16.09344 0 0
7:35 am 07:35 Cloudy 8 -13.3 4 -15.8 82 82 NNE 5 7 30.5 1033 10 16.09344 0 0
7:55 am 07:55 Cloudy 9 -12.6 4 -15.5 79 79 NNE 7 11 30.48 1032 10 16.09344 0 0
8:15 am 08:15 Cloudy 9 -12.6 4 -15.3 80 80 NE 9 15 30.48 1032 10 16.09344 0 0
8:35 am 08:35 Cloudy 10 -12.1 5 -14.8 81 81 NE 9 15 30.48 1032 10 16.09344 0 0
8:55 am 08:55 Cloudy 11 -11.7 5 -15 77 77 NE 8 13 30.48 1032 10 16.09344 0 0
9:15 am 09:15 Cloudy 12 -11.3 5 -14.8 76 76 NE 9 15 30.48 1032 10 16.09344 0 0
9:35 am 09:35 Cloudy 13 -10.8 6 -14.6 74 74 ENE 9 15 30.5 1033 10 16.09344 0 0
9:55 am 09:55 Cloudy 13 -10.5 6 -14.5 73 73 ENE 10 17 30.5 1033 10 16.09344 0 0
10:15 am 10:15 Cloudy 14 -10.1 7 -14.1 73 73 NE 13 20 30.5 1033 10 16.09344 0 0
10:35 am 10:35 Cloudy 14 -10.2 6 -14.3 72 72 ENE 17 28 30.53 1034 10 16.09344 0 0
10:55 am 10:55 Cloudy 13 -10.5 6 -14.5 73 73 ENE 18 30 30.53 1034 10 16.09344 0 0
11:15 am 11:15 Cloudy 13 -10.5 6 -14.5 73 73 NE 16 26 30.5 1033 10 16.09344 0 0
11:35 am 11:35 Cloudy 13 -10.5 7 -14.1 75 75 ENE 15 24 30.5 1033 10 16.09344 0 0
11:55 am 11:55 Cloudy 13 -10.5 6 -14.3 74 74 ENE 18 30 30.5 1033 10 16.09344 0 0
12:15 pm 12:15 Cloudy 13 -10.5 7 -14 76 76 ENE 20 31 30.5 1033 10 16.09344 0 0
12:35 pm 12:35 Cloudy 13 -10.5 7 -13.9 76 76 ENE 21 33 30.48 1032 10 16.09344 0 0
12:55 pm 12:55 Cloudy 12 -11 7 -14.1 78 78 ENE 21 33 30.48 1032 10 16.09344 0 0
1:15 pm 13:15 Cloudy 12 -11.1 7 -14.1 79 79 ENE 21 33 30.45 1031 10 16.09344 0 0
1:35 pm 13:35 Cloudy 12 -11 8 -13.6 81 81 ENE 16 26 30.48 1032 10 16.09344 0 0
1:55 pm 13:55 Cloudy with Light Snow 12 -11 8 -13.5 82 82 ENE 17 28 30.45 1031 5 8.04672 0 0
2:15 pm 14:15 Cloudy with Light Snow 12 -11.1 8 -13.1 85 85 NE 16 26 30.45 1031 4 6.437376 0 0
2:35 pm 14:35 Cloudy with Light Snow 12 -11.1 8 -13.3 84 84 NE 17 28 30.48 1032 10 16.09344 0 0
2:55 pm 14:55 Cloudy with Light Snow 11 -11.5 8 -13.6 85 85 NE 17 28 30.48 1032 5 8.04672 0 0
3:15 pm 15:15 Cloudy with Light Snow 11 -11.7 7 -13.7 85 85 NE 15 24 30.48 1032 4 6.437376 0 0
3:35 pm 15:35 Cloudy with Light Snow 11 -11.8 8 -13.6 87 87 NE 15 24 30.48 1032 3 4.828032 0 0
3:55 pm 15:55 Cloudy with Light Snow 10 -12 8 -13.6 88 88 NE 16 26 30.5 1033 2.5 4.02336 0 0
4:15 pm 16:15 Cloudy with Light Snow 10 -12.2 7 -14 87 87 NE 15 24 30.5 1033 3 4.828032 0 0
4:35 pm 16:35 Cloudy with Light Snow 10 -12.5 7 -14.1 88 88 NE 15 24 30.5 1033 4 6.437376 0 0
4:55 pm 16:55 Cloudy with Light Snow 9 -12.6 6 -14.3 87 87 NE 15 24 30.53 1034 5 8.04672 0 0
5:15 pm 17:15 Cloudy with Light Snow 9 -12.6 7 -14.1 89 89 NE 14 22 30.56 1035 7 11.265408 0 0
5:35 pm 17:35 Cloudy with Light Snow 9 -12.8 6 -14.3 89 89 NNE 12 19 30.56 1035 5 8.04672 0 0
5:55 pm 17:55 Cloudy with Light Snow 8 -13.1 6 -14.5 89 89 NNE 14 22 30.56 1035 2.5 4.02336 0 0
6:15 pm 18:15 Cloudy 8 -13.3 5 -15 87 87 NE 15 24 30.56 1035 10 16.09344 0 0
6:35 pm 18:35 Cloudy 8 -13.5 5 -15.1 88 88 NNE 14 22 30.59 1036 10 16.09344 0 0
6:55 pm 18:55 Cloudy 8 -13.5 5 -15.2 87 87 NNE 13 20 30.59 1036 10 16.09344 0 0
7:15 pm 19:15 Cloudy 8 -13.5 5 -15.2 87 87 NNE 14 22 30.59 1036 10 16.09344 0 0
7:35 pm 19:35 Cloudy 8 -13.6 4 -15.5 86 86 NE 10 17 30.59 1036 10 16.09344 0 0
7:55 pm 19:55 Cloudy 7 -13.9 3 -16.1 84 84 NNE 15 24 30.59 1036 10 16.09344 0 0
8:15 pm 20:15 Cloudy with Light Snow 7 -14 3 -16.2 84 84 NE 16 26 30.59 1036 10 16.09344 0 0
8:35 pm 20:35 Cloudy with Light Snow 7 -14.1 3 -16.1 85 85 NE 13 20 30.59 1036 10 16.09344 0 0
8:55 pm 20:55 Cloudy 6 -14.2 2 -16.6 82 82 NNE 14 22 30.62 1037 10 16.09344 0 0
9:15 pm 21:15 Cloudy 6 -14.3 2 -16.5 84 84 NE 12 19 30.62 1037 10 16.09344 0 0
9:35 pm 21:35 Cloudy with Light Snow 6 -14.5 2 -16.5 85 85 NE 14 22 30.59 1036 10 16.09344 0 0
9:55 pm 21:55 Cloudy with Light Snow 6 -14.5 2 -16.5 85 85 NE 12 19 30.62 1037 5 8.04672 0 0
10:15 pm 22:15 Cloudy with Light Snow 6 -14.6 2 -16.6 85 85 NE 9 15 30.65 1038 4 6.437376 0 0
10:35 pm 22:35 Cloudy with Light Snow 6 -14.7 2 -16.6 86 86 NE 12 19 30.68 1039 4 6.437376 0 0
10:55 pm 22:55 Cloudy with Light Snow 5 -14.9 2 -16.9 85 85 NE 10 17 30.68 1039 3 4.828032 0 0
11:15 pm 23:15 Cloudy with Light Snow 5 -15 2 -16.8 86 86 NNE 9 15 30.68 1039 3 4.828032 0 0
11:35 pm 23:35 Cloudy with Light Snow 5 -15 2 -16.8 86 86 NNE 10 17 30.68 1039 2.5 4.02336 0 0
11:55 pm 23:55 Cloudy with Light Snow 5 -15 2 -16.6 88 88 NNE 10 17 30.71 1040 2.5 4.02336 0 0

Powered by AerisWeather